Simultaneous Nadir Overpasses (SNOs) Predictions

Prediction of SNOs between AQUA and GOES-15 Satellite Orbit:

Table of predicted SNOs for the next 14.0 days since TLE Epoch: 9/9/2016
Index Date Time (AQUA) AQUA Lat,Lon GOES-15 Lat,Lon Distance(km) Time Diff (sec)
1 09/10/2016 10:19:13 -0.60,-131.11 0.35,-135.45 494.19 80
2 09/10/2016 22:40:35 -0.55,-136.29 -0.34,-135.43 98.78 80
3 09/12/2016 22:28:24 0.13,-133.34 -0.33,-135.44 238.62 80
4 09/13/2016 10:49:40 0.95,-138.50 0.32,-135.47 344.43 80
5 09/15/2016 10:37:28 0.32,-135.55 0.32,-135.47 8.08 80
6 09/17/2016 10:25:15 -0.26,-132.58 0.32,-135.47 328.39 80
7 09/17/2016 22:46:39 -0.82,-137.77 -0.31,-135.44 266.04 80
8 09/19/2016 22:34:27 -0.16,-134.82 -0.31,-135.43 69.47 80
9 09/21/2016 22:22:14 0.44,-131.85 -0.31,-135.41 404.28 80
10 09/22/2016 10:43:30 0.64,-137.01 0.30,-135.44 178.82 80




NCC Satellite Simultaneous Nadir Overpasses (SNOs) Prediction Service
